Dewpoint
-4 -3 -3 -4 -4 -4 -4 -5 -6 -5 -6 -8 -8 -8 -7 -4 -2 -5 1 -1 -12 -17 -18 -14 -7 0 1 1 2 4 6 6 7 7 7 6 6 5
-7 -5 -4 -4 -4 -5 -5 -5 -6 -6 -5 -8 -9 -8 -7 -6 -6 -6 -7 -14 -17 -19 -20 -19 -15 -9 -3 1 0 -1 0 3 5 6 6 6 5 4
-11 -9 -8 -6 -5 -6 -7 -7 -7 -7 -8 -9 -9 -9 -8 -7 -7 -8 -7 -5 -7 -17 -21 -20 -16 -8 -2 -0 1 0 -1 -2 -2 1 4 5 4 4
-12 -11 -11 -10 -9 -9 -7 -7 -8 -8 -9 -9 -10 -9 -8 -8 -6 -7 -15 -8 -5 -8 -19 -21 -19 -13 -5 0 1 0 -1 -1 -2 -2 -2 -2 -2 -2
-11 -12 -12 -11 -9 -7 -7 -8 -9 -10 -10 -9 -9 -11 -8 -8 -7 -6 -7 -8 -5 -4 -7 -17 -19 -16 -14 -10 -3 -4 -1 -1 -0 -1 -1 -2 -4 -5
-9 -9 -9 -9 -10 -8 -8 -8 -9 -9 -9 -8 -8 -8 -8 -8 -7 -7 -7 -6 -5 -5 -3 -3 -3 -6 -11 -12 -11 -1 1 1 1 -0 -1 -1 -2 -3
-8 -8 -8 -8 -8 -10 -13 -8 -9 -8 -8 -8 -7 -7 -7 -8 -7 -7 -6 -7 -6 -5 -5 -5 -4 -3 -2 -1 -3 0 2 2 1 1 -0 -1 -1 -2
-8 -8 -8 -8 -7 -6 -7 -10 -10 -8 -8 -8 -7 -7 -7 -7 -7 -7 -6 -6 -7 -6 -5 -3 -4 -2 -2 -2 -0 1 1 1 0 0 1 -0 -1 -2
-8 -8 -8 -8 -8 -7 -7 -6 -8 -11 -12 -9 -9 -9 -7 -7 -6 -6 -5 -5 -7 -6 -5 -4 -4 -4 -3 -3 -4 -3 -1 -0 -0 -1 -0 0 -1 -3
-9 -9 -9 -8 -8 -7 -7 -6 -7 -8 -10 -9 -8 -10 -9 -9 -7 -7 -6 -6 -6 -6 -5 -5 -6 -6 -5 -5 -6 -6 -5 -3 -2 -2 -2 -2 -1 -3
-9 -9 -9 -8 -8 -7 -7 -8 -7 -8 -7 -9 -8 -12 -13 -12 -12 -9 -7 -5 -6 -7 -6 -5 -5 -6 -5 -5 -11 -9 -6 -5 -5 -4 -3 -3 -3 -3
-8 -9 -8 -8 -7 -7 -7 -7 -9 -8 -8 -7 -7 -6 -7 -8 -11 -10 -9 -5 -6 -6 -6 -5 -5 -4 -6 -9 -4 -2 -2 -2 -1 -2 -2 -1 -1 -1
-8 -8 -8 -7 -7 -7 -7 -8 -7 -9 -8 -7 -6 -7 -7 -6 -7 -9 -9 -7 -8 -9 -7 -6 -6 -6 -6 -8 -14 -13 -12 -9 -3 -1 -0 -1 -0 0
-8 -9 -8 -7 -7 -7 -7 -8 -7 -7 -8 -7 -8 -9 -8 -8 -9 -9 -9 -8 -11 -13 -11 -6 -6 -8 -10 -8 -11 -14 -18 -17 -5 -3 -1 -1 -1 -1
-7 -9 -11 -7 -7 -8 -8 -7 -7 -7 -7 -7 -7 -8 -9 -10 -10 -9 -8 -6 -7 -9 -8 -9 -10 -10 -11 -10 -9 -16 -7 -13 -9 -5 -4 -3 -2 -1
-9 -8 -7 -6 -7 -7 -7 -7 -7 -8 -8 -8 -9 -10 -9 -9 -11 -11 -11 -8 -6 -6 -8 -8 -10 -12 -12 -12 -11 -15 -11 -6 -12 -7 -6 -3 -2 -2
-9 -9 -9 -9 -7 -9 -8 -8 -8 -9 -8 -8 -8 -8 -8 -8 -9 -10 -10 -10 -7 -7 -7 -8 -11 -11 -11 -11 -11 -9 -7 -6 -9 -14 -7 -7 -4 -2
-9 -9 -9 -8 -8 -7 -7 -7 -7 -8 -9 -8 -8 -8 -8 -8 -9 -8 -8 -8 -7 -6 -7 -7 -7 -8 -8 -11 -14 -12 -6 -7 -9 -11 -10 -4 -6 -3
-10 -10 -9 -9 -8 -8 -7 -8 -8 -7 -8 -8 -8 -8 -7 -7 -7 -7 -7 -7 -7 -7 -8 -7 -7 -7 -8 -8 -10 -8 -8 -8 -10 -10 -5 -4 -5 -3
-10 -10 -10 -10 -10 -10 -9 -8 -8 -8 -8 -7 -7 -7 -7 -7 -7 -7 -7 -7 -7 -7 -9 -9 -8 -9 -9 -9 -8 -8 -6 -6 -7 -7 -5 -4 -4 -3
-10 -10 -10 -10 -10 -10 -10 -9 -9 -8 -8 -8 -8 -7 -7 -8 -8 -7 -7 -7 -7 -7 -8 -9 -9 -9 -9 -9 -9 -9 -8 -8 -7 -7 -6 -5 -5 -4
-10 -10 -10 -10 -9 -10 -10 -10 -10 -9 -8 -8 -8 -7 -7 -7 -8 -8 -8 -8 -8 -8 -8 -9 -9 -9 -8 -8 -8 -8 -7 -8 -8 -6 -6 -6 -5 -4
-10 -10 -10 -10 -10 -9 -9 -9 -9 -9 -8 -8 -8 -8 -8 -8 -8 -8 -8 -8 -8 -8 -8 -8 -9 -8 -8 -8 -8 -8 -8 -9 -6 -6 -6 -5 -5 -5
Wind_Speed
24 24 25 25 25 26 26 27 29 34 34 30 30 24 25 23 23 26 29 32 36 35 32 32 31 29 28 28 29 29 28 27 24 23 25 25 25 24
26 26 27 28 29 30 30 29 27 31 36 31 29 27 27 28 33 28 30 36 37 34 33 33 31 30 32 31 29 28 30 31 30 28 28 29 28 27
27 29 30 30 33 33 32 29 28 27 31 38 30 26 26 27 28 31 28 27 30 33 32 32 32 31 29 30 30 29 28 28 30 32 33 32 31 30
30 29 31 30 31 31 30 29 29 29 29 32 38 29 26 24 26 28 32 28 27 29 30 33 33 33 33 30 30 29 28 28 28 28 30 32 33 33
33 32 32 31 32 31 29 30 30 29 27 27 34 34 27 25 26 26 27 27 25 26 26 32 33 34 34 34 33 31 29 29 28 27 27 27 29 29
35 35 34 33 33 34 33 32 29 27 28 27 28 35 28 28 23 24 25 23 24 23 23 25 26 30 32 33 33 31 29 28 27 25 24 23 24 26
37 36 36 37 37 38 37 36 30 28 27 27 29 30 29 28 25 23 22 22 24 23 25 26 22 20 19 21 30 31 30 28 26 27 26 26 25 24
38 38 35 36 35 33 35 36 35 32 32 33 33 32 32 28 25 23 22 20 24 17 19 17 17 19 19 19 22 25 30 30 31 31 30 28 27 26
36 37 38 35 33 33 32 32 32 33 36 36 37 36 34 32 27 26 24 22 24 21 20 22 17 20 19 19 24 28 31 28 30 33 33 31 29 27
33 35 36 36 34 32 33 30 29 30 32 30 30 35 34 35 33 31 27 25 24 24 20 25 17 19 18 18 22 23 26 33 34 32 32 33 32 30
31 30 30 33 33 31 31 32 31 32 30 33 32 31 32 32 31 32 30 23 24 24 20 21 18 18 17 18 16 16 22 24 24 29 31 29 31 29
30 30 29 29 30 31 30 32 33 32 27 27 26 26 25 26 29 30 30 26 21 20 18 19 15 10 11 12 7 10 13 12 16 19 21 21 21 25
35 36 35 32 31 30 30 33 32 32 29 29 27 26 25 23 24 26 27 29 26 26 18 17 21 16 14 20 20 14 14 19 18 13 11 17 18 18
37 38 33 31 32 32 31 30 30 30 31 31 30 29 27 26 26 24 25 26 26 26 21 19 23 20 21 22 27 21 21 18 17 18 15 14 16 16
36 32 34 35 35 31 30 34 32 32 33 31 29 28 27 27 26 22 22 27 25 24 24 22 24 25 25 28 29 31 22 21 14 16 20 17 17 18
34 33 33 34 29 30 31 28 31 30 30 29 30 29 27 24 25 24 23 22 27 28 27 25 25 28 31 31 30 34 28 23 21 16 17 17 14 15
30 33 34 32 30 30 25 24 24 27 26 29 32 30 29 28 27 25 25 25 27 30 30 30 29 28 30 29 29 30 28 26 25 24 21 24 26 20
28 29 26 25 26 22 21 22 22 23 24 24 25 27 29 29 28 25 25 26 27 28 29 29 27 25 26 30 31 33 31 31 28 25 21 26 29 23
20 20 22 22 23 20 19 20 23 22 22 23 23 24 25 26 24 23 23 23 27 31 29 23 20 21 23 27 28 22 23 24 23 23 20 25 26 25
21 22 22 22 21 24 22 22 21 20 20 21 21 21 22 22 23 24 23 25 26 24 22 21 22 24 27 30 28 24 19 21 22 22 22 23 24 24
23 23 23 23 23 21 22 25 24 23 21 21 21 21 20 21 23 22 24 23 22 24 25 25 25 24 24 22 29 33 27 21 23 24 25 23 22 24
24 24 23 23 22 21 20 20 23 23 22 22 22 22 20 19 19 19 20 21 23 24 26 26 24 22 21 25 28 26 23 25 23 20 25 26 22 16
25 25 23 22 22 22 22 20 18 21 20 20 19 20 19 19 20 19 20 21 21 22 23 20 20 19 21 22 23 26 28 27 23 21 22 23 22 21
Wind_Direction
289 282 279 280 280 282 285 285 287 291 290 291 290 284 276 280 279 276 268 267 278 280 273 268 263 258 256 256 255 254 252 253 254 251 253 256 260 263
291 286 283 281 279 281 283 284 280 281 287 291 289 284 279 272 280 290 289 279 277 276 272 269 267 263 257 254 255 254 254 254 253 251 251 253 254 259
289 286 283 281 279 279 278 276 277 278 280 289 288 287 282 278 282 286 286 283 283 278 273 267 265 263 260 255 255 256 256 255 254 252 251 252 254 254
288 284 283 282 280 279 273 272 273 277 278 282 289 288 286 282 280 282 288 283 276 275 271 266 261 260 260 258 255 254 257 258 258 256 250 249 254 253
287 284 283 282 279 275 270 271 274 276 276 276 281 290 287 284 280 280 284 284 277 275 266 259 259 258 258 260 259 258 255 253 255 259 258 254 254 253
287 284 282 280 277 273 270 271 273 273 276 274 276 283 287 284 280 280 284 282 279 273 263 263 257 254 256 255 255 252 248 245 249 254 255 253 253 256
288 285 284 283 280 279 272 268 269 269 272 272 270 276 281 283 278 280 278 281 280 274 270 263 259 262 258 259 253 250 246 239 246 248 251 254 255 256
288 286 284 285 282 282 276 269 266 266 271 270 270 270 275 276 280 274 273 276 279 280 272 262 247 253 258 254 248 245 245 241 243 250 253 257 260 262
287 286 288 287 284 283 276 267 264 266 271 271 267 267 268 272 275 273 269 269 271 275 272 275 270 268 267 265 260 247 248 244 244 249 254 259 262 263
286 286 287 287 284 283 278 268 268 270 272 271 269 272 270 271 269 267 264 266 267 267 265 270 276 274 280 274 264 254 254 251 253 252 251 256 261 264
289 288 286 286 286 281 276 275 274 272 273 278 279 273 272 271 267 261 260 258 262 264 255 262 274 283 280 279 282 261 255 256 255 251 251 256 262 261
293 291 289 285 287 284 276 274 274 272 271 272 272 274 277 271 266 257 255 247 250 263 263 261 268 275 302 296 260 252 263 270 258 247 244 246 253 258
293 293 292 288 285 284 280 275 273 275 272 270 270 269 268 268 265 262 252 248 249 254 252 252 264 276 272 289 296 290 273 272 267 244 236 240 244 248
292 291 291 289 289 285 283 277 272 271 271 270 269 268 267 266 271 270 265 253 254 257 257 251 263 271 281 280 284 285 288 287 271 276 263 245 250 256
287 290 295 292 288 291 281 276 274 270 269 269 267 268 269 272 274 271 267 251 254 254 252 252 264 278 279 278 280 285 287 289 273 262 273 272 261 257
304 299 301 288 285 285 283 284 266 270 270 267 267 272 272 268 266 268 265 264 251 256 257 258 270 277 279 278 278 278 278 275 277 277 268 258 261 260
306 299 291 296 296 287 291 287 279 274 271 270 265 269 271 270 270 270 266 260 253 256 257 263 270 272 271 276 269 268 270 275 281 287 271 263 262 258
306 302 300 294 295 284 282 281 282 276 274 273 268 268 268 269 271 269 265 258 253 253 258 268 271 268 267 269 261 258 259 269 281 286 264 267 263 265
326 310 312 304 298 298 286 285 287 281 278 274 270 267 267 267 265 259 253 256 252 255 264 260 253 251 262 263 263 262 267 271 287 281 262 261 263 260
338 330 324 315 305 289 290 290 287 288 282 277 273 269 266 265 263 262 257 251 251 258 265 263 256 255 255 257 267 263 259 272 277 278 263 267 262 258
344 342 336 330 320 307 289 277 280 283 284 277 274 270 267 267 265 266 257 251 249 256 261 263 263 266 269 267 261 263 268 270 260 258 259 268 270 261
349 345 341 339 338 327 311 300 275 271 277 271 276 268 268 264 264 266 263 261 259 257 261 269 270 268 258 253 259 259 260 273 270 264 250 257 259 253
357 355 348 345 344 339 338 329 304 273 274 277 273 264 264 263 265 265 263 264 265 263 266 261 264 263 260 262 259 263 269 275 264 262 252 248 250 240
Height
1501 1499 1497 1496 1494 1491 1488 1486 1482 1472 1469 1471 1469 1469 1466 1464 1461 1459 1457 1455 1453 1452 1452 1451 1451 1451 1451 1451 1450 1451 1452 1451 1453 1454 1457 1457 1457 1459
1495 1492 1490 1489 1486 1484 1481 1479 1476 1471 1460 1464 1462 1461 1459 1456 1453 1450 1447 1446 1445 1444 1443 1442 1442 1442 1442 1442 1442 1443 1443 1444 1446 1448 1450 1451 1452 1451
1487 1485 1482 1481 1477 1475 1473 1470 1467 1466 1460 1451 1454 1453 1450 1448 1446 1443 1440 1438 1435 1435 1435 1435 1433 1433 1433 1433 1434 1434 1435 1436 1437 1440 1442 1442 1442 1443
1479 1476 1472 1471 1467 1466 1464 1462 1460 1458 1455 1450 1443 1444 1443 1441 1438 1436 1432 1429 1427 1425 1426 1425 1425 1425 1425 1425 1426 1427 1428 1428 1429 1430 1431 1432 1434 1435
1470 1467 1463 1461 1458 1456 1454 1452 1451 1449 1447 1444 1437 1435 1435 1434 1431 1429 1425 1422 1419 1417 1416 1416 1416 1416 1416 1416 1417 1419 1420 1421 1421 1422 1423 1425 1425 1427
1459 1457 1453 1451 1449 1448 1446 1444 1442 1440 1438 1436 1432 1426 1427 1425 1424 1421 1418 1416 1414 1412 1410 1409 1408 1407 1407 1408 1409 1410 1411 1413 1414 1415 1416 1417 1418 1419
1449 1447 1444 1441 1438 1437 1436 1434 1433 1431 1429 1427 1424 1421 1419 1417 1417 1415 1413 1411 1408 1407 1404 1402 1402 1402 1402 1401 1401 1402 1404 1405 1407 1407 1408 1409 1411 1412
1439 1435 1434 1431 1428 1426 1423 1422 1422 1421 1419 1418 1416 1414 1411 1411 1411 1409 1407 1405 1402 1401 1399 1396 1396 1395 1395 1394 1394 1395 1396 1397 1398 1400 1402 1403 1404 1405
1431 1426 1423 1421 1419 1416 1414 1412 1411 1410 1409 1408 1406 1405 1404 1403 1404 1402 1401 1400 1397 1396 1395 1392 1393 1390 1389 1387 1387 1387 1389 1390 1391 1392 1394 1395 1396 1398
1422 1419 1415 1411 1409 1406 1404 1402 1401 1400 1399 1398 1397 1395 1395 1395 1394 1394 1393 1393 1391 1390 1391 1387 1387 1385 1382 1380 1380 1380 1381 1383 1383 1385 1386 1387 1388 1390
1413 1410 1407 1402 1399 1397 1395 1392 1391 1389 1390 1388 1387 1386 1386 1385 1385 1386 1385 1386 1384 1383 1384 1382 1381 1379 1378 1374 1374 1373 1375 1374 1375 1376 1378 1379 1380 1381
1405 1401 1398 1395 1392 1389 1386 1384 1382 1380 1382 1381 1380 1378 1377 1376 1375 1376 1376 1377 1379 1378 1378 1378 1377 1376 1373 1370 1370 1370 1370 1369 1368 1369 1370 1371 1373 1373
1396 1391 1388 1386 1383 1381 1378 1376 1374 1373 1372 1372 1371 1370 1369 1369 1367 1368 1368 1370 1371 1371 1373 1372 1371 1372 1371 1367 1365 1366 1366 1364 1364 1364 1364 1364 1366 1367
1387 1383 1380 1377 1374 1371 1369 1367 1366 1365 1364 1363 1362 1362 1362 1361 1361 1361 1362 1363 1364 1364 1366 1367 1365 1367 1366 1364 1360 1360 1361 1360 1360 1360 1360 1361 1361 1362
1379 1374 1371 1367 1365 1362 1359 1358 1358 1356 1355 1354 1353 1353 1354 1354 1354 1354 1355 1355 1357 1358 1359 1360 1361 1361 1360 1358 1355 1353 1355 1354 1355 1356 1356 1356 1356 1357
1369 1365 1361 1357 1355 1353 1351 1349 1348 1347 1347 1346 1345 1345 1346 1346 1347 1347 1348 1348 1349 1351 1353 1354 1355 1354 1352 1352 1351 1347 1349 1350 1349 1350 1350 1350 1351 1351
1362 1356 1352 1349 1346 1343 1341 1340 1339 1339 1338 1338 1338 1338 1338 1338 1339 1340 1341 1342 1343 1343 1345 1346 1348 1347 1345 1344 1343 1342 1342 1342 1342 1342 1344 1343 1345 1345
1354 1349 1345 1342 1339 1336 1335 1333 1332 1331 1330 1330 1330 1330 1330 1331 1331 1332 1333 1334 1335 1336 1337 1339 1340 1339 1338 1336 1335 1333 1335 1335 1336 1336 1337 1337 1337 1338
1350 1345 1341 1337 1334 1331 1329 1327 1325 1324 1324 1323 1323 1323 1323 1324 1324 1324 1325 1325 1326 1328 1329 1331 1333 1333 1333 1329 1328 1330 1329 1330 1331 1329 1330 1331 1331 1331
1347 1342 1337 1333 1329 1326 1324 1321 1319 1318 1317 1317 1316 1316 1316 1317 1317 1317 1318 1318 1319 1320 1322 1324 1325 1326 1326 1324 1324 1324 1325 1324 1325 1323 1324 1325 1325 1326
1345 1340 1335 1330 1325 1321 1318 1316 1314 1312 1311 1310 1310 1310 1310 1310 1310 1310 1310 1311 1313 1313 1314 1315 1317 1319 1318 1319 1316 1314 1316 1317 1318 1318 1318 1319 1319 1319
1344 1339 1333 1328 1322 1317 1313 1310 1307 1306 1305 1304 1304 1303 1304 1304 1304 1305 1305 1305 1306 1307 1307 1308 1309 1310 1311 1311 1309 1310 1310 1310 1310 1310 1311 1313 1315 1314
1344 1339 1332 1327 1321 1315 1310 1305 1301 1300 1299 1298 1297 1297 1298 1298 1299 1299 1299 1299 1300 1300 1301 1301 1302 1303 1303 1303 1304 1304 1304 1304 1303 1304 1305 1306 1308 1310